This is the latest recevied weather packets stored in our database for station/object EW6851. If no packets are shown the sender has not sent any weather packets the latest 10 day(s).
| Time | Temp. | Humidity | Pressure | Rain* | Wind** | Luminosity | Snow |
|---|---|---|---|---|---|---|---|
| 1778270210 | 19.44° C | 69% | 1014.9 hPa | 0 mm | - | 0 W/m² | - |
| 1778269313 | 19.44° C | 70% | 1014.7 hPa | 0 mm | - | 0 W/m² | - |
| 1778268407 | 20° C | 79% | 1014.6 hPa | 0 mm | - | 0 W/m² | - |
| 1778268113 | 20° C | 78% | 1014.6 hPa | 0 mm | - | 0 W/m² | - |
| 1778267207 | 20.56° C | 73% | 1014.3 hPa | 0 mm | - | 0 W/m² | - |
| 1778265707 | 20.56° C | 66% | 1013.9 hPa | 0 mm | - | 0 W/m² | - |
| 1778264213 | 21.11° C | 63% | 1013.6 hPa | 0 mm | - | 0 W/m² | - |
| 1778262713 | 21.11° C | 62% | 1013.4 hPa | 0 mm | - | 0 W/m² | - |
| 1778262407 | 21.11° C | 62% | 1013.4 hPa | 0 mm | - | 5 W/m² | - |
| 1778262107 | 21.11° C | 62% | 1013.3 hPa | 0 mm | - | 12 W/m² | - |
| 1778261807 | 21.11° C | 62% | 1013.2 hPa | 0 mm | - | 12 W/m² | - |
| 1778261207 | 21.11° C | 61% | 1013.2 hPa | 0 mm | - | 14 W/m² | - |
| 1778260308 | 21.67° C | 59% | 1013 hPa | 0 mm | - | 33 W/m² | - |
| 1778259107 | 21.67° C | 57% | 1012.9 hPa | 0 mm | - | 74 W/m² | - |
| 1778255807 | 22.22° C | 54% | 1012.9 hPa | 0 mm | - | 134 W/m² | - |
| 1778254010 | 22.22° C | 60% | 1012.9 hPa | 0 mm | - | 171 W/m² | - |
| 1778252807 | 22.22° C | 61% | 1012.8 hPa | 0 mm | - | 197 W/m² | - |
| 1778252510 | 22.22° C | 59% | 1012.9 hPa | 0 mm | - | 193 W/m² | - |
| 1778252208 | 22.78° C | 60% | 1012.8 hPa | 0 mm | - | 204 W/m² | - |
| 1778251907 | 22.78° C | 60% | 1012.8 hPa | 0 mm | - | 232 W/m² | - |
| 1778247714 | 23.33° C | 61% | 1012.5 hPa | 0 mm | - | 348 W/m² | - |
| 1778246808 | 23.89° C | 58% | 1012.4 hPa | 0 mm | - | 629 W/m² | - |
| 1778245308 | 23.89° C | 58% | 1012.2 hPa | 0 mm | - | 738 W/m² | - |
| 1778244714 | 23.89° C | 59% | 1012.3 hPa | 0 mm | - | 751 W/m² | - |
| 1778244408 | 23.89° C | 58% | 1012.3 hPa | 0 mm | - | 763 W/m² | - |
* Rain latest hour (hover to see other rain measurements)
** Current wind speed in m/s (hover to see current wind gust speed)